Regional Weather Roundup
Issued by NWS Upton, NY

Current Version | Previous Version | Text Only | Print | Product List | Glossary On
Versions: 1 2 3 4 5 6 7 8 9 10 11 12 13 14 15 16 17 18 19 20 21 22 23 24 25 26 27 28 29 30 31 32 33 34 35 36 37 38 39 40 41 42 43 44 45 46 47 48 49 50
000
ASUS41 KOKX 052308
RWROKX

REGIONAL WEATHER ROUNDUP
NATIONAL WEATHER SERVICE NEW YORK NY
700 PM EDT TUE MAY 05 2015

NOTE: "FAIR" INDICATES FEW OR NO CLOUDS BELOW 12,000 FEET WITH NO
SIGNIFICANT WEATHER AND/OR OBSTRUCTIONS TO VISIBILITY.

NYZ071-072-176-178-NJZ106-104-060000-
NEW YORK CITY METRO AREA


CITY           SKY/WX    TMP DP  RH WIND       PRES   REMARKS
CENTRAL PARK   CLOUDY    74  51  44 VRB5      30.17S
LAGUARDIA APRT CLOUDY    71  51  49 S9        30.14S
KENNEDY INTL   MOCLDY    67  52  58 S7        30.17R
NEWARK/LIBERTY CLOUDY    75  54  47 SE3       30.14S
BRNX BOT. GARD   N/A     70  50  49 SE10      30.17R
TETERBORO      CLOUDY    75  52  44 S13       30.13R
$$

NYZ177-179-078>081-060000-
LONG ISLAND NEW YORK

CITY           SKY/WX    TMP DP  RH WIND       PRES   REMARKS
FARMINGDALE    MOCLDY    68  51  54 S7        30.16S
ISLIP          CLOUDY    67  51  56 S7        30.14S
SHIRLEY        PTCLDY    69  51  52 S7        30.16S
WESTHAMPTON    PTCLDY    68  51  54 CALM      30.16F
MONTAUK POINT    N/A     58  49  72 SE5       30.17F
$$

NYZ052-065-067-060000-
HUDSON VALLEY

CITY           SKY/WX    TMP DP  RH WIND       PRES   REMARKS
WHITE PLAINS   MOCLDY    72  53  51 S7        30.14R
NEWBURGH       PTCLDY    77  43  29 NW10      30.14S
MONTGOMERY     PTCLDY    78  43  28 W6        30.13S
POUGHKEEPSIE   PTCLDY    81  41  24 W10       30.11R
ALBANY         CLOUDY    72  36  26 NW12      30.17S
$$

NJZ001-105-106-008-010-013-015-019>022-104-060000-
NEW JERSEY

CITY           SKY/WX    TMP DP  RH WIND       PRES   REMARKS
NEWARK/LIBERTY CLOUDY    75  54  47 SE3       30.14S
TETERBORO      CLOUDY    75  52  44 S13       30.13R
CALDWELL       CLOUDY    80  50  34 VRB5      30.14R
MORRISTOWN     CLOUDY    79  50  36 NW3       30.14R
SOMERVILLE     CLOUDY    78  55  44 CALM      30.12S
SUSSEX         MOCLDY    79  43  27 W5        30.16S
ANDOVER          N/A     77  47  34 CALM      30.16S
TRENTON        CLOUDY    78  55  44 NW6       30.15S
MILLVILLE      PTCLDY    77  58  51 VRB5      30.16S
ATLANTIC CITY  PTCLDY    78  58  49 S7        30.16R
WRIGHTSTOWN    MOCLDY    77  60  57 SW2       30.12S
TOMS RIVER     PTCLDY    75  59  57 CALM      30.15F
BELMAR         MOCLDY    73  54  49 S3        30.15S
$$

PAZ047>061-062-071-060000-
EASTERN PENNSYLVANIA

CITY           SKY/WX    TMP DP  RH WIND       PRES   REMARKS
PHILADELPHIA   MOCLDY    82  55  39 W10       30.15F
ALLENTOWN      MOSUNNY   76  54  46 W5        30.16F
SCRANTON       MOSUNNY   76  51  41 SW7       30.17F
$$

CTZ002-004>006-009-010-012-RIZ004-006-007-MAZ004-011-015-060000-
SOUTHERN NEW ENGLAND
 IN CT

CITY           SKY/WX    TMP DP  RH WIND       PRES   REMARKS
BRADLEY INTL   MOCLDY    78  44  29 N8        30.11S
HARTFORD       PTCLDY    78  54  43 S6        30.11S
DANBURY        PTCLDY    77  49  37 SW8       30.14S
WTRBRY/OXFORD  PTCLDY    75  54  46 S8        30.16S
BRIDGEPORT     MOCLDY    72  53  51 S13       30.12S
MERIDEN        PTCLDY    77  53  43 S7        30.12F
NEW HAVEN      MOCLDY    71  53  52 SE6       30.13S
CHESTER        FAIR      72  52  49 S8        30.16R
GROTON         PTCLDY    64  50  60 SE6       30.15F
WILLIMANTIC    MOCLDY    75  52  44 S9        30.14R

 IN RI

CITY           SKY/WX    TMP DP  RH WIND       PRES   REMARKS
PROVIDENCE     MOCLDY    65  50  58 S15       30.16R
BLOCK ISLAND   PTCLDY    59  48  67 S8        30.17F
WESTERLY       MOCLDY    63  50  62 S7        30.16F

 IN MA

CITY           SKY/WX    TMP DP  RH WIND       PRES   REMARKS
BOSTON         MOCLDY    57  52  83 E13       30.17R
WORCESTER      MOCLDY    71  28  20 N10       30.17R
WESTFIELD      MOCLDY    80  40  23 N6        30.12F
PROVINCETOWN   MOCLDY    63  50  63 SE8       30.17R
NANTUCKET      CLEAR     56  47  71 SE10      30.17S
$$

ANZ330-335-338-340-345-350-353-355-060000-
COASTAL MARINE OBSERVATIONS


STATION/POSITION TIME  SKY/WX   TEMP    WIND        PRES    VSBY  WAVE
                                AIR SEA DIR/SP/G                  HT/PER
                 (UTC)          (F)     (DEG/KT/KT) (MB)    (MI)  (FT/S)
NY HARB ENTRANCE 2250            57 53  190/ 10/ 12 1020.6          3/ 6
4S FIRE IS       2203               52                N/A           3/ 6
20S FIRE ISLAND  2250            53 51  190/  8/ 10 1021.3          3/ 6
GREAT SOUTH BAY  2200            61 62  200/  6/ 10   N/A
23SW MTP         2250            51 49  200/  6/  6 1021.2          3/ 6
HUDSON CANYON    NOT AVBL
KINGS POINT      2200            69 58  190/ 12/ 15 1020.1
EASTERN LI SOUND 2200            54     160/  6/  6   N/A
ROBBINS REEF     2200            69     160/ 18/ 18 1019.5
$$


>>>>>>>>>>>>>>>>>>>>>>>>>>>> KEY <<<<<<<<<<<<<<<<<<<<<<<<<<<
>                                                          <
>     SKY/WX - SKY CONDITION/PRESENT WEATHER               <
>     TMP    - TEMPERATURE IN FAHRENHEIT                   <
>     DP     - DEWPOINT IN FAHRENHEIT                      <
>     RH     - RELATIVE HUMIDITY IN PERCENT                <
>     WIND   - DIRECTION AND SPEED IN MPH                  <
>     PRES   - MEAN SEA LEVEL PRESSURE IN INCHES OF HG     <
>     WCI    - WIND CHILL INDEX                            <
>     VSB    - VISIBILITY IN MILES                         <
>     HX     - HEAT INDEX                                  <
>     TC     - TEMPERATURE IN CELSIUS                      <
>     VRB    - VARIABLE WIND DIRECTION                     <
>                                                          <
>>>>>>>>>>>>>>>>>>>>>>>>>>>> KEY <<<<<<<<<<<<<<<<<<<<<<<<<<<





USA.gov is the U.S. government's official web portal to all federal, state and local government web resources and services.